CZ-4C DEB, 40113

Orbit data source: Space-Track

CZ-4C DEB, 40113 is space debris in LEO originally from a launch on Sat, 09 Aug 2014 UTC launched from the Jiuquan Satellite Launch Center, China (JSC). Debris objects in space refer to the collection of defunct objects orbiting the Earth. Examples of debris include non-operational satellites, rocket bodies, and fragments generated from explosions, collisions, or faulty payload assembly.

Loading next visibility...
Identifier
40113, 2014-047E
Orbit
LEO
Last TLE update
13 hours ago
Origin
Manufacturer
CAST
Mission
Spacecraft
Bus & Motor
Unknown
Mass
Unknown
Launch date (UTC)
2014-08-09 (11 years ago)
Launch vehicle
Unknown
Launch site
Jiuquan Satellite Launch Center, China (JSC)
Object type
Payload
Rocket body
Debris
Shape & HBR
Unknown
Radar Cross Section
8.300 m², Large (>1 m²)

Expand to show TLE details & history

TLE from 13 hours ago
0 CZ-4C DEB
1 40113U 14047E   25128.71640368  .00000064  00000-0  17992-3 0  9999
2 40113  63.3848   1.4926 0357670  13.6511 347.3884 13.44589464527571
Epoch: 2025-05-08T17:11Z
Definitive object data (Epoch: 2025-05-08T17:11:37.277Z)
Latitude
-0.00005°
Longitude
-123.19565°
Altitude
833.707 km
Speed
7.565 km/s
True Right ascension
00h 05m 58s
True Declination
0° 00' 00"
Sunlit
Object was in daylight at TLE epoch
Visualization TLE readout
Latitude
9.27158°
Longitude
50.70778°
Altitude
1,335.592 km
Speed
7.074 km/s
Apparent Right ascension
09h 02m 19s
Apparent Declination
-27° 50' 40"
Sunlit
Object is in daylight
Visualization observer readout
Local Sidereal Time
14:39:45
Azimuth
244.804° WSW
Elevation
-13.477°
Doppler factor
1
Orbital elements
Apogee altitude
1,358.212 km
Perigee altitude
823.91 km
Semi-major axis
7,469.198 km
Eccentricity
0.035767
Inclination
63.3848°
RAAN
1.4926°
Arg. of periapsis
13.6511°
True anomaly
346.4528°
Mean anomaly
347.3884°
Eccentric anomaly
346.92479°
Mean motion
3.36227 °/min
BSTAR
0.00017992
Orbital period
107.07 mins
Loading maneuver chart data...
Loading SW <> Apogee altitude chart data...
Loading historical data...
Loading historical data...
Loading historical data...
Loading historical data...
Loading historical data...
Loading historical data...
Loading historical data...

CZ-4C DEB Visibility forecast

Observer location: undefined°, undefined°

Span
Click to sort rows by Start time (UTC) header in descending order
Start Az.
Max El. time (UTC)
Max El. Az.
Max El.
End time (UTC)
End Az.
9 mins2025-05-09 16:30:55.143Z177.821° S2025-05-09 16:34:55.143Z124.228° SE31.293°2025-05-09 16:39:55.143Z51.756° ENE
9 mins2025-05-09 18:21:55.143Z257.291° W2025-05-09 18:25:55.143Z317.524° NNW29.674°2025-05-09 18:30:55.143Z18.559° NNE
10 mins2025-05-10 00:01:55.143Z353.36° N2025-05-10 00:05:55.143Z33.858° NE21.868°2025-05-10 00:11:55.143Z87.57° E
13 mins2025-05-10 01:51:55.143Z327.007° NNW2025-05-10 01:57:55.143Z98.411° ESE44.925°2025-05-10 02:04:55.143Z146.464° SSE
9 mins2025-05-10 03:43:55.143Z286.737° WNW2025-05-10 03:47:55.143Z250.814° W18.84°2025-05-10 03:52:55.143Z210.939° SW
|